Overview Statistics Trail Chart Weather Telemetry Raw packets
 

This is the latest recevied weather packets stored in our database for station/object KO4DYK. If no packets are shown the sender has not sent any weather packets the latest 10 day(s).

<< 19 20 21 22 23 24 25 >>
Time Temp. Humidity Pressure Rain* Wind** Luminosity Snow
1788526875 25° C 99% 1017.9 hPa 0 mm - 60 W/m² -
1788526573 24.44° C 99% 1018 hPa 0 mm - 57 W/m² -
1788526273 24.44° C 99% 1018 hPa 0 mm - 52 W/m² -
1788525968 23.89° C 99% 1017.6 hPa 0 mm - 48 W/m² -
1788525663 23.89° C 99% 1017.7 hPa 0 mm - 44 W/m² -
1788525357 23.89° C 99% 1017.6 hPa 0 mm - 39 W/m² -
1788525054 23.33° C 99% 1017.6 hPa 0 mm - 35 W/m² -
1788524754 22.78° C 99% 1017.7 hPa 0 mm - 33 W/m² -
1788524448 22.78° C 99% 1017.8 hPa 0 mm - 31 W/m² -
1788524144 22.78° C 99% 1017.6 hPa 0 mm - 28 W/m² -
1788523840 22.22° C 99% 1017.5 hPa 0 mm - 23 W/m² -
1788523536 22.22° C 99% 1017.4 hPa 0 mm - 20 W/m² -
1788523231 22.22° C 99% 1017.5 hPa 0 mm - 17 W/m² -
1788522926 21.67° C 99% 1017.2 hPa 0 mm - 14 W/m² -
1788522626 21.67° C 99% 1017.5 hPa 0 mm - 11 W/m² -
1788522322 21.67° C 99% 1017.4 hPa 0 mm - 7 W/m² -
1788522021 21.67° C 99% 1017.4 hPa 0 mm - 4 W/m² -
1788521716 21.67° C 99% 1017.1 hPa 0 mm - 2 W/m² -
1788521415 21.67° C 99% 1017 hPa 0 mm - 0 W/m² -
1788521111 21.67° C 99% 1017.2 hPa 0 mm - 0 W/m² -
1788520807 21.67° C 99% 1016.8 hPa 0 mm - 0 W/m² -
1788520502 21.67° C 99% 1016.9 hPa 0 mm - 0 W/m² -
1788520198 21.67° C 99% 1017.1 hPa 0 mm - 0 W/m² -
1788519897 22.22° C 99% 1016.9 hPa 0 mm - 0 W/m² -
1788519592 21.67° C 99% 1016.9 hPa 0 mm - 0 W/m² -

* Rain latest hour (hover to see other rain measurements)
** Current wind speed in m/s (hover to see current wind gust speed)